S-Net B
1 43187U 18014H 21126.31408869 -.00000253 00000-0 -16938-4 0 9991
2 43187 97.6802 34.6214 0009724 217.6169 142.4374 14.97039313177999
S-Net A
1 43188U 18014J 21126.38094638 -.00000257 00000-0 -17292-4 0 9992
2 43188 97.6806 34.7299 0009708 217.3497 142.7051 14.97038066178003
S-Net C
1 43189U 18014K 21126.51510637 -.00000300 00000-0 -21042-4 0 9997
2 43189 97.6801 34.8119 0009752 216.9233 143.1318 14.97037816176576
FMN 1
1 43192U 18015A 21126.89435196 .00003279 00000-0 12323-3 0 9996
2 43192 97.4819 262.0804 0015448 34.5602 82.1173 15.27790150181248
Shaonian Xing
1 43199U 18015H 21126.90545623 .00002346 00000-0 90093-4 0 9997
2 43199 97.4601 259.3995 0016860 43.4208 74.3580 15.27349061181307
SurfSat
1 43614U 18070B 21126.68628967 .00003633 00000-0 85798-4 0 9994
2 43614 93.0265 288.6116 0015245 156.3956 203.8002 15.41786984148235
CP-7 DAVE
1 43615U 18070C 21126.69595222 .00003535 00000-0 84251-4 0 9997
2 43615 93.0268 288.5766 0015418 156.4385 203.7580 15.41511938148222
ELFIN-B
1 43616U 18070D 21126.40560925 .00005547 00000-0 12078-3 0 9991
2 43616 93.0224 288.5978 0015369 156.2854 203.9114 15.44185164148286
ELFIN-A
1 43617U 18070E 21126.44237251 .00006059 00000-0 12999-3 0 9990
2 43617 93.0273 289.4198 0014806 152.8074 207.3962 15.44623937148303
STARS-Me Mother
1 43640U 98067PQ 21126.31480827 .00099145 14858-4 29967-3 0 9996
2 43640 51.6252 90.5971 0004023 106.4817 253.6632 15.92083371147577
CubeBel 1
1 43666U 18083E 21126.82193318 .00001457 00000-0 72324-4 0 9991
2 43666 97.4597 155.7123 0013021 319.1248 146.2580 15.19223098139691
Changshagaoxin
1 43669U 18083H 21126.83460748 .00001196 00000-0 62079-4 0 9995
2 43669 97.4504 152.9256 0009445 316.7400 95.4718 15.18027542139576
Ten-Koh
1 43677U 18084G 21126.56337693 .00000231 00000-0 29584-4 0 9990
2 43677 97.9137 249.5090 0016329 167.9909 192.1702 14.90450055137068
PO-101
1 43678U 18084H 21126.86597500 .00000240 00000-0 29532-4 0 9992
2 43678 97.9169 251.9468 0009462 180.5798 179.5349 14.91742711137236
IRVINE 01
1 43693U 18088D 21126.57102084 .00002773 00000-0 10822-3 0 9994
2 43693 85.0371 222.7775 0017322 172.2520 187.8995 15.25273658138055
QO-100
1 43700U 18090A 21126.50278209 .00000133 00000-0 00000-0 0 9994
2 43700 0.0171 269.9039 0001113 147.9573 13.5428 1.00274074 8944
Reaktor Hello World
1 43743U 18096AA 21126.49211268 .00001695 00000-0 63271-4 0 9994
2 43743 97.3869 204.3255 0018770 67.9411 292.3820 15.28643103135724
MinXSS-2
1 43758U 18099A 21126.23184032 .00000237 00000-0 26193-4 0 9996
2 43758 97.6689 198.2968 0015363 184.1556 175.9540 14.96015762132205
AO-95
1 43770U 18099N 21126.42579825 .00000356 00000-0 37402-4 0 9996
2 43770 97.6670 197.5371 0014143 191.9994 168.0892 14.95287844132176
RANGE-B
1 43772U 18099Q 21126.46249620 .00000527 00000-0 52552-4 0 9992
2 43772 97.6749 198.5037 0014286 179.2217 180.9029 14.95574814132182
RANGE-A
1 43773U 18099R 21126.42833542 .00000061 00000-0 10708-4 0 9991
2 43773 97.6606 196.9045 0013494 178.7663 181.3593 14.95189680132167
MOVE-II
1 43780U 18099Y 21126.47087868 .00000960 00000-0 90904-4 0 9990
2 43780 97.6684 198.0678 0013389 188.0660 172.0348 14.95866002132198
SNUSat 2
1 43782U 18099AA 21126.46534024 .00000533 00000-0 53207-4 0 9993
2 43782 97.6665 197.9023 0012909 177.4682 182.6607 14.95529154132193
SnugLite
1 43784U 18099AC 21126.41030444 .00000866 00000-0 82847-4 0 9998
2 43784 97.6633 197.5861 0014968 185.8262 174.2788 14.95652569132206
ITASat 1
1 43786U 18099AE 21126.15262279 .00000685 00000-0 66793-4 0 9995
2 43786 97.6690 197.9184 0014986 186.0300 174.0743 14.95586604132169
EAGLET 1
1 43790U 18099AJ 21126.46462463 .00000287 00000-0 30668-4 0 9991
2 43790 97.6674 198.6192 0013292 189.0329 171.0655 14.95941340131931
ESEO
1 43792U 18099AL 21126.51013741 -.00000356 00000-0 -26828-4 0 9992
2 43792 97.6644 198.2885 0013060 185.9801 174.1266 14.95725557131996
CSIM
1 43793U 18099AM 21126.42458030 .00000886 00000-0 82888-4 0 9991
2 43793 97.6675 198.5229 0013017 180.4303 179.6910 14.96529151131983
Astrocast 0.1
1 43798U 18099AS 21126.15289258 .00001175 00000-0 10931-3 0 9991
2 43798 97.6685 198.4929 0012768 168.0946 192.0580 14.96139654132193
JO-97
1 43803U 18099AX 21126.45781549 .00000316 00000-0 33336-4 0 9992
2 43803 97.6643 197.9740 0015058 185.6834 174.4219 14.95821123132219
Suomi 100
1 43804U 18099AY 21126.46252190 .00000470 00000-0 47135-4 0 9992
2 43804 97.6643 197.9488 0015151 185.7364 174.3686 14.95794113132228
Al Farabi 2
1 43805U 18099AZ 21126.73715702 .00000487 00000-0 48441-4 0 9995
2 43805 97.6663 198.4181 0015005 184.1387 175.9716 14.96001052132273
CHOMPTT
1 43855U 18104G 21126.49438255 .00001175 00000-0 46899-4 0 9995
2 43855 85.0344 321.3248 0015228 306.1475 53.8358 15.23864454132705
ISAT
1 43879U 18111D 21126.47488997 .00000204 00000-0 22978-4 0 9999
2 43879 97.6865 34.4698 0011713 241.8801 118.1241 14.96585825126779
UWE-4
1 43880U 18111E 21126.53644598 .00000251 00000-0 26914-4 0 9995
2 43880 97.6889 34.9800 0010991 241.9391 118.0720 14.96825726128814
Sparrow
1 43881U 18111F 21126.24133282 .00000337 00000-0 34385-4 0 9993
2 43881 97.6909 34.8133 0010731 240.2193 119.7962 14.96887833128778
Lume 1
1 43908U 18111AJ 21126.76050846 .00001368 00000-0 55452-4 0 9997
2 43908 97.2375 22.7988 0022361 79.9818 280.3943 15.26095808131313
FO-98
1 43933U 19003B 21126.08153419 .00008637 00000-0 33753-3 0 9996
2 43933 97.1872 169.0895 0017068 176.6557 183.4799 15.25962406127646
FO-99
1 43937U 19003F 21126.41175785 .00001691 00000-0 68819-4 0 9992
2 43937 97.1805 171.2735 0024022 157.7038 202.5251 15.25574397127853
MYSat 1
1 44045U 18092F 21126.80359347 .00003807 00000-0 10515-3 0 9991
2 44045 51.6375 269.3700 0010636 56.3406 303.8591 15.39574408125040
AstroCast 0.2
1 44083U 19018F 21126.37738725 .00001404 00000-0 63541-4 0 9994
2 44083 97.3759 188.2418 0014459 117.3577 242.9133 15.22445934116491
AISTechSat 3
1 44103U 19018AB 21126.77961076 .00001275 00000-0 55484-4 0 9991
2 44103 97.3625 189.0067 0014647 126.6827 329.4706 15.23966019116664
AISat 1
1 44104U 19018AC 21126.47510758 .00001466 00000-0 47722-4 0 9994
2 44104 97.4267 203.6276 0057880 143.4794 217.0417 15.31952119117240
Raavana-1
1 44329U 98067QE 21126.42567851 .00031215 00000-0 22245-3 0 9992
2 44329 51.6324 141.3926 0004514 88.0800 272.0715 15.73523524107536
Uguisu
1 44330U 98067QF 21126.41064950 .00030503 00000-0 22123-3 0 9999
2 44330 51.6309 141.9607 0004562 88.3524 271.7997 15.73123839107502
NepaliSat-1
1 44331U 98067QG 21126.41941644 .00031205 00000-0 22296-3 0 9995
2 44331 51.6298 141.2666 0004333 89.6578 270.4917 15.73463384107529
Prox-1
1 44339U 19036A 21126.62651258 .00000959 00000-0 17575-3 0 9990
2 44339 23.9995 237.6309 0011167 80.9205 279.2549 14.53530206 99164
Oculus-ASR
1 44348U 19036K 21126.48222028 .00008923 00000-0 11886-3 0 9991
2 44348 28.5133 52.8934 0333847 173.0494 187.4879 15.11152253102557
Armadillo
1 44352U 19036P 21126.06481066 .00012111 00000-0 15261-3 0 9994
2 44352 28.5302 37.4144 0305448 196.6146 162.4247 15.18117562102624
NO-104
1 44354U 19036R 21126.09032860 .00010112 00000-0 13224-3 0 9999
2 44354 28.5294 49.2609 0328990 177.0376 183.2249 15.12609381102552
NO-103
1 44355U 19036S 21126.35449571 .00015534 00000-0 17269-3 0 9996
2 44355 28.5254 8.9885 0271664 242.7193 114.5491 15.27386791102985
